Regional Weather Roundup
Issued by NWS

Home | Current Version | Previous Version | Text Only | Print | Product List | Glossary On
Versions: 1 2 3 4 5 6 7 8 9 10 11 12 13 14 15 16 17 18 19 20 21 22 23 24 25 26 27 28 29 30 31 32 33 34 35 36 37 38 39 40 41 42 43 44 45 46 47 48 49 50
000
ASUS43 KTOP 021408
RWRKS

WEATHER ROUNDUP FOR KANSAS
NATIONAL WEATHER SERVICE GOODLAND KS
800 AM CST MON MAR 02 2015

NOTE:  "FAIR" INDICATES FEW OR NO CLOUDS BELOW 12,000 FEET WITH NO
SIGNIFICANT WEATHER AND/OR OBSTRUCTIONS TO VISIBILITY.

KSZ001>006-013>018-027>032-041>047-021500-
NORTHWEST KANSAS

CITY           SKY/WX    TMP DP  RH WIND       PRES   REMARKS
GOODLAND       MOCLDY    22  21  96 S10       30.17F FOG     WCI  11
HAYS           MOCLDY    21  10  63 SE5       30.37S
HILL CITY      MOCLDY    23  18  81 SE5       30.34F HAZE
RUSSELL        MOCLDY    23  20  88 SE6       30.37F
$$

KSZ061>065-074>080-084>089-021500-
SOUTHWEST KANSAS

CITY           SKY/WX    TMP DP  RH WIND       PRES   REMARKS
DODGE CITY     MOCLDY    23  18  81 SE8       30.30F HAZE
ELKHART          N/A     25  19  78 S10         N/A  WCI  15
GARDEN CITY    MOCLDY    20  19  96 SE9       30.27F FOG
GREAT BEND     CLOUDY    25  18  74 SE7       30.38F
LIBERAL        CLOUDY    27  19  74 SE8       30.29S
PRATT          CLOUDY    27  21  80 S5        30.39S
$$

KSZ066>073-081>083-090>101-021500-
SOUTHEAST KANSAS

CITY           SKY/WX    TMP DP  RH WIND       PRES   REMARKS
CHANUTE        PTSUNNY   24  21  88 NE5       30.46S
COFFEYVILLE    MOSUNNY   25  21  85 NE6       30.47F FOG
HUTCHINSON     CLOUDY    25  20  81 SE6       30.41F
MEDICINE LODGE   N/A     23  21  92 CALM      30.41F
NEWTON         CLOUDY    23  16  74 SE7       30.44S
PARSONS        PTSUNNY   25  21  85 E3        30.47S
WICHITA INTL   CLOUDY    21  18  88 CALM      30.43F
WICHITA JABRA  CLOUDY    22  19  89 MISG      30.43F
WICHITA MCCONL CLOUDY    24  19  82 E6        30.43F
WINFIELD       PTSUNNY   20  17  88 N3        30.46S
$$

KSZ007>012-019>026-033>040-048>060-102>105-021500-
NORTHEAST KANSAS

CITY           SKY/WX    TMP DP  RH WIND       PRES   REMARKS
CONCORDIA      MOCLDY    28  21  75 S9        30.42S
EMPORIA        PTSUNNY   21  19  92 CALM      30.46R FOG
LAWRENCE       PTSUNNY   21  19  92 CALM      30.50R FOG
MANHATTAN      MOSUNNY   23  21  92 CALM      30.47R FOG
MARYSVILLE     CLOUDY    30  27  86 CALM      30.43S
OLATHE IND     PTSUNNY   24  21  88 SE3       30.49R FOG
OLATHE EXE     PTSUNNY   25  22  88 CALM      30.48R FOG
SALINA         PTSUNNY   24  20  84 CALM      30.45S FOG
TOPEKA BILLARD PTSUNNY   23  19  85 CALM      30.50R FOG
TOPEKA FORBES  MOSUNNY   23  19  85 CALM      30.47R FOG
$$


USA.gov is the U.S. government's official web portal to all federal, state and local government web resources and services.